OPS 5712 (P/L 153)

Satellite information

Favourite Embed

Satellite Type and Status

PAYLOADIN ORBIT

Key statistics

Satellite OPS 5712 (P/L 153) at a glance.

Uptime

21277

Days in orbit

Revolutions

≈ 14.0

Per day

Orbit

LEO

Low Earth Orbit

Inclination

70.0

Latest

Satellite identification and parameters

Extended collection of information and parameters for OPS 5712 (P/L 153).

Object identification

Identified? True

Debris? False

Object name: OPS 5712 (P/L 153)

International designator: 1967-053H

Object number (NORAD): 2874

Object ID (CCSDS): 2874

Country: UNITED STATES OF AMERICA (US)

Current information (Y/N): Y

RCS size: MEDIUM

Orbital parameters

Period: 103.096 minutes

Inclination: 69.9758 deg

SMA: 7283.162 km

Apoapsis: 911.657 km

Periapsis: 898.397 km

RAAN: 19.8162 deg

Eccentricy: 0.0009103

Argument of periapsis: 229.5555 deg

Mean anomaly: 130.4758 deg

Mean motion: 13.96763191 rev/day

Mean motion (dot): 0.00000077 rev/day2

B* drag term: 0.000093575871 1/REarth

Two-line elements (TLE)

Creation date: Aug. 30, 2025, 3:38 a.m.

Reference frame: TEME

Reference center: EARTH

Epoch: Aug. 29, 2025, 7:27 p.m. UTC

TLE line 0: 0 OPS 5712 (P/L 153)

TLE line 1: 1 02874U 67053H 25241.81086731 .00000077 00000-0 93576-4 0 9998

TLE line 2: 2 02874 69.9758 19.8162 0009103 229.5555 130.4758 13.96763191966094

Live tracking on map

Real-time ground track for satellite OPS 5712 (P/L 153).

In-orbit conjunctions

There are no conjunctions computed for OPS 5712 (P/L 153), at the moment. Check back to stay up to date, as we update our databases every day.

Go to all conjunctions

Associated space launch

Poppy was the follow-on ELINT system, which succeeded the Grab ELINT satellite system.

OPS 5712 (P/L 153) was lifted into orbit during the mission ‘Thor SLV-2 Agena D | Poppy 7A,B,C,D’, on board a Thor SLV-2 Agena D space rocket.

The launch took place on May 31, 1967, 9:30 a.m. from Space Launch Complex 2W.

For more information about the launch, click the button.

Launch to space Thor SLV-2 Agena D | Poppy 7A,B,C,D
Thor SLV-2 Agena D | Poppy 7A,B,C,D

Agency: N/A

Status: Launch Successful

Launch date: May 31, 1967, 9:30 a.m. UTC

Rocket: Thor SLV-2 Agena D

Launch pad: Space Launch Complex 2W

Location: Vandenberg SFB, CA, USA

...

Latest news about this satellite

There are no fresh news available about this satellite. Check back as we update our databases every day.


Newsletter sign-up

Weekly statistics, charts and insights to help you stay on top of the space industry.